FW6339 Weather Reports


Display with metric or nautical units.
time (UTC)temp
F
wind
direction
speed
MPH
gust
MPH
rain 1hr
in
rain 24hr
in
rain mn
in
humidity
%
barometer
mb
20260503200007 90 212 8.0 14.0 0.00 0.09 0.06 38 1010.5
20260503194504 90 137 7.0 14.0 0.00 0.09 0.06 38 1010.8
20260503193003 91 198 6.0 13.0 0.01 0.09 0.06 38 1011.0
20260503191602 91 277 4.0 11.0 0.02 0.09 0.06 38 1011.4
20260503190058 90 207 3.0 11.0 0.03 0.09 0.06 36 1011.7
20260503184552 89 234 1.0 9.0 0.03 0.09 0.06 36 1011.8
20260503183050 89 212 0.0 8.0 0.03 0.09 0.06 35 1012.0
20260503181616 88 206 0.0 9.0 0.02 0.07 0.04 37 1011.9
20260503180044 86 213 1.0 10.0 0.02 0.06 0.03 39 1012.1
20260503174539 85 146 2.0 9.0 0.02 0.09 0.03 38 1012.2
20260503173045 84 221 3.0 9.0 0.01 0.08 0.02 38 1012.3
20260503171527 83 195 1.0 9.0 0.01 0.08 0.02 39 1012.4
20260503120109 58 199 5.0 10.0 0.00 0.06 0.01 92 1010.7
20260503081512 63 184 4.0 8.0 0.01 0.06 0.01 85 1011.5
20260503071555 64 187 5.0 8.0 0.00 0.06 0.00 81 1012.0
20260503054532 67 142 3.0 6.0 0.00 0.06 0.06 74 1011.7
20260503053037 68 129 1.0 6.0 0.00 0.06 0.06 74 1011.6
20260503051527 68 154 4.0 9.0 0.00 0.06 0.06 73 1011.4
20260503050022 69 160 4.0 8.0 0.00 0.06 0.06 73 1011.3
20260503044551 69 193 3.0 9.0 0.00 0.06 0.06 73 1011.2
20260503043017 70 163 3.0 8.0 0.00 0.06 0.06 72 1011.1
20260503041515 70 183 6.0 10.0 0.00 0.06 0.06 71 1010.8
20260503040015 71 179 4.0 10.0 0.00 0.06 0.06 70 1010.7
20260503034511 72 124 6.0 10.0 0.00 0.06 0.06 68 1010.5
20260503033013 73 164 4.0 9.0 0.00 0.06 0.06 66 1010.4
20260503031507 74 199 5.0 11.0 0.01 0.06 0.06 64 1009.8
20260503030004 76 145 6.0 11.0 0.01 0.06 0.06 62 1009.6
20260503024502 77 172 5.0 11.0 0.01 0.06 0.06 59 1009.3
20260503023001 79 197 4.0 9.0 0.02 0.06 0.06 56 1009.2
20260503021603 81 182 4.0 10.0 0.01 0.05 0.05 52 1009.3
20260503020111 82 200 2.0 8.0 0.01 0.05 0.05 51 1009.2
20260503014601 83 193 4.0 10.0 0.02 0.05 0.05 50 1009.1
20260503013102 85 224 5.0 12.0 0.01 0.04 0.04 47 1008.7
20260503011554 86 225 7.0 12.0 0.01 0.04 0.04 43 1008.5
20260503010049 87 209 5.0 11.0 0.00 0.03 0.03 42 1008.6
20260503004547 88 273 6.0 12.0 0.00 0.03 0.03 38 1008.3
20260503003049 88 234 5.0 12.0 0.00 0.03 0.03 36 1008.1
20260503001548 90 207 4.0 11.0 0.00 0.03 0.03 33 1008.0
20260503000047 91 208 2.0 11.0 0.00 0.03 0.03 33 1007.8
20260502234551 90 342 2.0 7.0 0.00 0.03 0.03 38 1007.7
20260502233036 89 54 2.0 8.0 0.00 0.03 0.03 39 1007.6
20260502231534 89 4 5.0 12.0 0.00 0.03 0.03 40 1007.6
20260502230030 89 314 5.0 11.0 0.00 0.03 0.03 42 1007.9
20260502224527 88 14 9.0 14.0 0.00 0.04 0.03 47 1007.9
20260502223035 88 344 7.0 13.0 0.00 0.04 0.03 43 1008.1
20260502221519 89 11 7.0 14.0 0.00 0.04 0.03 38 1008.2
20260502220018 88 314 5.0 12.0 0.00 0.04 0.03 42 1008.4
20260502214516 86 314 6.0 14.0 0.00 0.04 0.03 43 1008.4
20260502213012 88 333 4.0 12.0 0.00 0.04 0.03 39 1008.4
20260502211510 88 289 7.0 13.0 0.00 0.04 0.03 34 1008.6
20260502210009 89 352 7.0 13.0 0.00 0.04 0.03 36 1008.8
20260502204507 89 25 7.0 14.0 0.00 0.05 0.03 34 1008.8
20260502203004 89 333 5.0 14.0 0.00 0.05 0.03 36 1008.9
20260502201501 89 52 6.0 12.0 0.00 0.05 0.03 36 1009.1